Theta_e
287 290 290 289 290 291 290 290 286 288 288 289 291 291 291 291 292 292 292 294 295 294 295 295 296 297 297 296 296 297 296 296 296 297 297 298 298 298 298 299 301 302 303 304
284 289 290 288 290 291 291 292 291 292 288 291 292 292 291 291 291 291 292 294 294 294 295 295 295 296 296 296 296 297 295 295 296 298 298 298 298 299 298 298 299 299 300 301
282 288 288 284 288 290 290 291 290 287 290 291 289 291 290 290 291 291 292 292 292 294 294 294 294 294 294 295 296 295 295 296 298 298 298 298 298 298 298 298 298 298 301 301
282 283 278 287 294 294 290 290 290 289 290 290 289 291 290 291 291 290 291 292 293 294 294 294 294 295 295 295 294 294 295 296 297 297 297 298 298 298 298 298 297 297 298 300
282 279 285 289 293 291 289 287 291 290 291 290 291 290 288 293 292 291 292 293 294 294 294 294 294 294 294 293 294 294 294 295 296 297 297 297 297 298 298 298 297 297 298 299
284 280 277 286 296 298 294 284 293 292 290 289 289 281 284 290 291 293 293 294 293 293 293 293 293 294 292 292 293 293 294 295 296 296 297 297 298 299 299 299 298 298 298 299
284 282 283 292 297 298 285 284 292 291 289 287 287 287 289 290 293 293 293 292 293 293 292 292 293 293 291 291 291 294 294 295 295 296 297 299 299 300 299 298 298 297 298 300
286 283 280 297 297 290 291 294 294 291 290 289 289 289 289 292 291 292 291 292 293 292 291 292 293 292 290 290 292 293 293 294 294 296 298 300 298 298 299 298 296 296 298 300
287 283 292 296 296 296 295 293 291 291 291 290 288 288 290 290 291 291 292 292 293 292 291 292 292 291 289 290 292 292 292 292 294 296 299 299 297 297 297 297 296 296 298 300
291 296 295 298 297 297 295 293 293 292 290 290 288 288 289 290 291 291 292 291 292 291 290 289 291 291 291 291 292 291 290 292 294 296 299 299 298 298 297 297 297 298 299 300
293 296 297 298 298 295 295 294 293 292 291 290 289 288 290 290 290 291 291 292 291 290 290 289 290 290 291 291 291 290 290 292 293 295 298 299 299 298 298 299 298 296 298 300
284 294 292 292 295 296 294 293 292 291 290 291 290 289 290 289 291 291 291 291 289 289 289 289 290 290 290 290 290 289 289 291 292 295 298 300 299 299 296 294 294 294 292 293
292 297 293 293 295 296 293 293 293 291 292 291 292 290 290 289 290 291 291 290 288 288 288 289 288 289 290 289 289 289 289 291 293 294 297 299 299 300 298 299 297 295 293 293
295 294 291 293 291 294 294 295 295 293 293 292 291 290 290 289 289 289 289 290 289 288 287 287 287 287 289 289 288 289 289 291 291 293 298 300 300 301 300 299 299 301 298 293
293 293 293 293 292 293 293 292 291 291 292 291 291 290 290 288 287 288 289 289 288 286 285 285 286 286 289 288 287 288 288 289 289 292 294 295 299 300 300 300 301 300 302 300
293 293 293 291 291 291 291 290 289 289 290 291 289 289 289 289 288 287 288 287 284 282 282 283 284 286 288 287 286 286 287 287 287 289 290 291 292 295 298 298 299 299 300 299
290 290 290 290 290 290 289 290 290 290 290 290 290 290 289 288 287 286 286 286 285 283 282 282 283 285 286 286 286 285 285 285 286 286 286 287 288 289 291 293 294 297 299 299
295 294 293 292 290 290 290 290 289 289 289 290 290 290 288 286 285 285 285 285 284 283 282 282 284 284 284 284 285 283 283 284 284 284 284 285 285 286 287 288 290 292 295 298
294 293 292 292 291 291 289 288 288 289 289 289 288 287 288 286 286 285 285 284 282 281 281 282 283 283 282 283 283 282 282 281 282 282 283 283 283 284 284 284 286 288 290 292
292 292 292 291 291 290 289 289 290 288 288 287 286 285 286 286 286 285 284 283 283 283 283 282 282 282 282 283 282 281 280 280 279 280 280 280 281 281 282 282 284 285 286 287
290 290 289 288 287 289 290 290 289 287 287 287 285 284 283 286 286 285 282 281 284 284 283 283 282 282 282 281 281 280 279 279 279 279 279 279 279 280 280 281 282 283 283 284
288 288 287 287 286 286 287 288 288 286 286 286 286 285 284 284 285 285 285 282 284 284 282 282 282 281 281 281 280 279 279 279 278 278 278 278 278 279 279 279 280 281 282 282
288 288 287 286 285 284 286 287 285 285 285 285 284 284 284 284 284 282 281 284 284 285 282 282 281 281 281 280 280 279 279 279 278 278 278 278 278 279 279 279 279 280 280 281
287 286 286 286 284 284 283 284 284 284 284 284 284 285 284 282 283 284 284 284 283 284 284 282 281 281 279 279 280 279 279 279 278 278 278 278 279 279 279 279 279 279 279 280
286 285 284 283 282 281 283 284 283 283 283 282 283 285 285 285 283 283 283 283 283 282 283 281 280 280 279 279 278 278 278 278 278 278 278 278 278 278 279 279 279 279 279 280
284 283 283 283 282 282 282 282 281 282 282 282 282 283 283 283 283 283 283 283 282 281 281 282 280 280 279 278 278 278 278 278 278 278 278 278 278 278 279 279 279 279 279 279
283 283 282 282 282 282 282 282 281 280 280 280 280 281 281 281 281 281 282 282 281 280 280 280 280 280 278 278 277 277 278 278 278 278 278 278 278 279 279 279 279 279 279 279
Wind_Speed
3 2 1 3 5 6 7 6 6 4 7 7 11 7 4 3 6 5 6 7 7 9 10 9 11 11 12 12 11 11 12 13 13 13 13 14 13 13 13 14 15 16 17 17
2 2 6 6 7 8 8 10 10 13 9 1 5 5 2 5 5 5 8 9 10 11 12 14 13 12 12 12 13 12 13 14 13 13 14 14 15 15 15 14 15 17 17 17
4 3 4 5 9 9 5 5 9 11 6 6 4 3 3 2 1 5 8 9 12 14 12 11 14 13 13 13 13 13 13 13 14 14 15 15 16 16 16 15 14 15 16 15
1 2 5 4 4 3 4 2 4 5 5 4 2 2 2 3 2 6 7 11 14 11 11 12 13 12 12 13 13 12 13 14 15 16 17 17 17 17 16 14 13 13 15 14
2 3 5 1 3 4 4 4 4 6 4 2 2 1 1 3 2 5 8 11 10 10 12 12 12 12 13 14 11 12 14 15 16 16 17 18 18 18 15 12 11 12 14 15
3 2 4 4 1 2 3 4 7 6 4 2 1 4 3 6 6 8 11 9 11 12 12 11 11 12 13 12 13 13 14 16 16 17 17 17 18 15 10 10 11 10 13 14
4 3 7 4 4 1 3 4 4 4 4 2 2 3 3 6 9 9 10 11 11 11 11 11 11 11 12 12 13 14 15 16 17 16 16 14 15 12 9 9 9 11 12 12
5 5 7 2 2 4 3 3 5 4 3 4 2 3 4 8 9 11 12 12 11 11 11 11 10 11 12 13 14 15 15 16 16 16 13 10 13 11 10 9 10 10 10 11
6 5 3 2 2 3 3 5 4 6 4 5 4 3 6 7 9 10 11 11 10 10 11 10 10 10 13 14 14 15 15 16 15 15 13 11 11 11 9 8 7 7 8 9
2 3 3 2 7 4 3 4 7 6 6 5 3 3 5 5 7 8 9 10 10 11 12 12 12 11 11 13 14 14 15 15 14 13 13 12 9 8 7 6 6 7 8 8
2 2 2 2 5 6 6 9 9 6 5 5 4 3 3 4 5 7 8 9 10 10 11 12 13 12 12 13 14 14 13 13 12 11 13 12 10 7 6 5 5 7 8 8
6 7 5 3 8 10 10 7 7 6 5 4 4 3 3 5 5 6 8 9 10 11 11 13 12 12 13 14 13 13 12 10 11 10 10 9 9 8 7 9 13 12 11 9
4 5 5 6 8 5 7 7 6 6 6 5 2 3 3 3 5 8 7 9 11 12 12 13 13 13 14 15 14 13 11 12 11 11 9 9 10 8 7 9 12 12 9 13
6 10 6 3 5 7 8 7 7 6 6 5 4 4 3 4 5 7 9 9 10 11 12 13 13 15 15 16 15 13 12 18 10 10 10 9 9 8 5 6 9 10 8 5
5 5 7 11 8 7 6 6 6 5 5 4 4 4 5 6 8 8 9 10 10 10 13 14 15 16 16 17 16 14 12 11 12 10 10 12 10 9 8 7 7 8 10 11
9 12 12 11 9 7 6 6 6 4 4 3 5 4 5 5 5 6 8 10 11 12 14 14 14 16 16 17 15 12 11 20 16 11 10 11 10 10 9 9 8 7 7 9
15 7 9 8 8 7 5 5 5 4 4 4 4 4 5 5 5 7 8 9 8 9 13 13 14 14 15 17 15 11 10 11 18 11 11 11 10 10 10 10 11 9 8 8
7 10 8 12 10 8 6 5 6 6 4 5 5 5 5 6 6 7 7 9 10 11 14 14 14 13 14 16 14 12 11 11 11 11 11 11 11 10 10 10 11 10 11 11
12 12 10 9 8 8 7 6 6 6 5 5 6 5 5 5 5 7 6 11 13 15 14 13 20 15 15 19 16 11 12 13 12 10 11 14 11 11 11 11 11 12 11 11
11 9 9 7 7 7 7 5 7 6 5 6 5 6 5 5 5 7 7 8 9 7 10 14 13 12 15 15 20 12 13 14 14 12 11 11 11 11 11 14 12 12 11 12
11 10 9 8 7 6 6 6 8 7 6 6 6 5 5 4 5 5 7 6 9 10 11 16 12 9 9 12 11 11 12 12 11 13 13 12 12 11 11 12 11 10 11 11
7 8 9 8 8 7 6 7 8 7 7 7 6 7 6 6 5 4 6 5 5 9 7 9 8 15 10 16 10 11 11 12 11 10 11 13 13 12 12 11 11 11 10 10
6 6 8 8 8 7 7 8 7 7 7 6 6 6 6 4 4 5 6 9 6 5 6 8 12 14 14 10 9 10 11 11 11 10 10 10 11 11 12 12 11 11 10 10
6 7 7 7 8 9 11 5 7 7 6 6 6 5 3 3 5 4 4 8 11 10 6 9 10 13 12 9 9 10 10 10 10 10 9 13 9 10 10 11 11 11 11 12
8 6 7 7 7 5 8 7 7 6 6 6 6 5 5 4 3 2 3 4 10 9 7 11 12 13 9 9 9 10 9 9 9 10 10 10 10 10 10 11 10 11 10 10
6 5 4 5 5 5 5 5 5 3 4 5 4 3 4 3 4 4 5 7 7 10 7 6 8 9 8 9 10 10 10 9 10 10 11 11 11 11 10 12 12 12 11 11
5 6 6 5 4 4 4 5 6 4 4 4 4 3 4 4 5 6 7 6 6 6 7 7 6 8 9 9 9 10 9 9 11 10 10 10 10 11 11 11 11 11 11 12
Wind_Direction
209 208 178 217 231 208 197 176 192 229 205 215 212 203 234 304 316 321 335 323 312 318 323 322 315 320 319 312 303 299 296 295 288 283 282 283 283 283 284 286 287 280 275 267
299 214 220 244 242 240 212 213 232 241 254 238 149 137 249 290 311 319 313 309 321 318 317 321 318 315 311 304 307 305 294 287 290 292 297 293 288 283 278 276 280 279 273 267
250 340 332 266 231 219 220 199 192 214 221 153 155 205 265 301 7 312 306 315 315 322 317 318 317 314 307 305 301 295 291 295 302 298 293 290 288 282 276 274 276 277 278 260
206 335 237 254 335 220 159 76 106 90 120 135 161 254 305 140 11 306 312 315 321 315 315 314 313 305 305 301 296 297 306 307 303 305 301 296 291 283 274 269 271 276 279 267
203 213 317 157 228 153 157 227 189 140 130 106 23 332 100 103 357 316 310 322 312 320 312 311 311 313 305 302 302 313 309 307 307 301 299 298 293 289 275 267 269 275 279 269
175 237 227 244 245 262 121 281 172 143 160 181 99 29 266 354 338 323 333 324 323 318 312 312 316 308 303 309 318 311 309 306 304 301 298 301 304 305 283 268 269 277 279 276
209 247 284 224 197 81 137 230 124 138 140 112 114 192 300 329 336 338 330 326 324 318 314 314 314 309 310 319 309 306 308 305 303 300 300 301 310 307 286 280 280 285 281 273
200 200 248 66 73 169 201 55 129 99 107 109 98 19 354 344 344 339 331 328 330 325 321 319 319 317 323 311 307 310 309 306 302 300 299 303 308 309 299 290 291 291 288 285
183 211 237 352 118 95 119 121 121 119 117 113 82 16 354 350 346 332 332 330 329 326 324 329 329 332 315 312 313 314 310 304 303 303 298 301 300 303 300 295 293 300 296 293
117 167 127 93 61 54 43 103 112 111 107 94 98 28 10 353 334 334 337 337 337 338 336 334 338 328 315 316 318 313 307 307 306 313 308 309 299 296 302 304 320 314 314 314
140 120 108 178 144 145 121 109 102 101 122 131 97 58 13 322 317 323 330 334 340 339 338 336 332 333 332 327 323 317 313 310 315 315 311 314 307 310 302 285 275 305 308 303
217 203 152 189 145 134 136 132 133 128 127 133 84 57 332 321 317 331 333 341 346 343 339 338 334 338 338 337 330 322 322 320 318 312 315 315 316 324 291 256 282 285 265 269
222 139 98 102 102 104 120 133 137 121 133 141 86 53 356 333 335 345 328 345 354 343 343 339 341 342 345 343 337 335 331 328 327 327 321 324 326 345 342 322 308 309 311 333
138 111 75 118 139 119 115 120 119 111 125 117 102 54 9 3 341 350 345 341 348 346 350 347 346 350 346 349 345 342 344 345 338 331 333 337 340 351 353 337 329 338 348 0
127 79 116 112 101 99 103 111 112 120 130 110 77 80 37 21 12 1 347 354 351 357 2 358 353 353 351 353 353 351 351 350 344 343 345 348 345 347 348 349 355 355 358 7
96 106 112 112 113 112 119 120 115 114 118 137 96 90 61 40 10 358 358 2 6 3 360 359 357 350 353 354 355 353 354 358 3 356 352 355 355 351 350 352 352 358 1 0
110 111 117 116 132 137 135 128 124 123 105 96 143 116 71 44 29 15 10 8 3 6 6 2 355 357 356 358 3 356 356 356 2 5 0 359 355 358 356 353 354 351 358 1
124 133 133 140 144 137 123 113 109 105 93 98 77 85 75 49 28 8 3 11 12 13 14 7 3 7 5 6 6 7 3 2 3 4 359 360 1 0 359 358 354 355 355 352
125 123 122 126 132 125 123 123 109 106 87 85 73 71 96 59 38 18 1 21 19 12 6 5 8 12 12 14 14 11 11 9 6 4 4 2 2 3 5 1 356 356 355 359
105 110 119 123 125 127 127 123 113 92 77 82 78 70 86 55 40 23 6 26 17 19 6 9 9 11 15 9 18 17 13 12 11 6 5 4 4 1 0 4 359 358 358 356
123 123 119 111 103 106 119 121 112 93 73 73 82 72 83 74 53 24 26 20 9 25 15 16 16 8 13 16 17 20 17 14 10 9 7 1 358 1 1 359 359 3 356 355
125 122 117 110 103 91 87 104 104 91 78 75 71 73 73 46 26 29 35 16 347 33 17 20 13 15 13 19 17 19 17 17 13 9 6 5 1 356 357 358 356 355 354 353
117 120 114 115 114 109 91 96 89 87 82 73 80 91 81 55 28 26 21 6 4 13 19 26 13 21 12 17 16 15 15 14 11 9 5 0 356 354 351 352 348 348 348 348
107 105 111 108 107 105 108 94 89 82 83 74 73 82 77 64 46 28 11 11 1 360 44 18 11 11 23 12 9 11 6 7 7 3 3 2 356 353 350 348 345 345 340 338
112 105 113 111 109 111 121 116 96 81 82 73 71 75 62 46 72 21 22 358 1 15 18 25 14 12 18 13 10 7 5 5 0 356 354 354 352 350 349 347 343 339 336 333
118 117 122 118 129 131 126 110 106 98 92 84 70 61 42 31 33 32 25 18 20 16 14 11 16 18 10 9 6 7 0 359 360 355 351 346 346 348 346 344 343 339 336 333
88 103 107 91 81 112 117 120 112 94 80 91 96 47 40 30 31 37 33 30 27 19 10 6 360 10 9 12 4 6 357 354 356 352 349 345 343 341 340 341 337 334 332 333